Location: Dal�� Lhota
(48.7500°N, 14.0167°E)
Time: 01:33:12
(UTC+00:00)

ISS - Pass Details

Date: 30 June 2021
Orbit: 419 x 421 km, 51.6° (Epoch: 02 August)

Event Time Altitude Azimuth Distance (km) Brightness Sun altitude
Exits shadow 01:31:57 13° 176° (S) 1,353 -1.6 -11.2°
Maximum altitude 01:33:46 18° 139° (SE) 1,110 -1.8 -11.0°
Drops below altitude 10° 01:36:07 10° 94° (E) 1,501 -0.5 -10.8°
Sets 01:38:40 0° 75° (ENE) 2,369 0.9 -10.6°
